Location: *
(55.5817°S, 142.4781°W)
Time: 07:15:58
(UTC+00:00)

Okean O Rocket - Pass Details

Date: 29 April 2025
Orbit: 614 x 637 km, 98.0° (Epoch: 23 May)

Event Time Altitude Azimuth Distance (km) Brightness Sun altitude
Rises 16:04:24 0° 66° (ENE) 2,908 7.3 -6.9°
Reaches altitude 10° 16:07:08 10° 84° (E) 2,012 5.9 -6.6°
Maximum altitude 16:10:06 18° 127° (SE) 1,557 4.1 -6.2°
Drops below altitude 10° 16:13:04 10° 169° (S) 2,034 4.2 -5.8°
Sets 16:15:51 0° 187° (S) 2,953 4.8 -5.4°
